Meacham, OR

8:44 PM PST on February 12, 2016 (GMT -0800)
Meacham

Weather History for KMEH - March, 2014

Change the Weather History Date:

Thursday, March 20, 2014

  Actual Average (KPDT) Record (KPDT)
Temperature  
Mean Temperature 32 °F 46 °F  
Max Temperature 39 °F 57 °F 75 °F (1911)
Min Temperature 25 °F 36 °F 18 °F (1913)
Degree Days  
Heating Degree Days 33 19  
Month to date heating degree days 423  
Since 1 July heating degree days 4322  
Cooling Degree Days 0 0  
Month to date cooling degree days 0  
Year to date cooling degree days 0  
Moisture  
Dew Point 19 °F    
Average Humidity 63    
Maximum Humidity 82    
Minimum Humidity 39    
Precipitation  
Precipitation 0.00 in 0.05 in 0.66 in (1907)
Month to date precipitation 0.89  
Year to date precipitation 3.43  
Snow  
Snow 0.00 in 0.00 in 0.10 in (1966)
Month to date snowfall 0.6  
Year to date snowfall 7.6  
Since 1 July snowfall 15.1  
Snow Depth -    
Sea Level Pressure  
Sea Level Pressure 30.21 in    
Wind  
Wind Speed 4 mph (West)    
Max Wind Speed 9 mph    
Max Gust Speed -    
Visibility 10 miles    
Events Snow    
T = Trace of Precipitation, MM = Missing Value Source: NWS Daily Summary

Daily Weather History Graph

Daily Weather History Graph

Search for Another Location

Airport or City:

Trip Planner

Search our weather history database for the weather conditions in past years. The results will help you decide how hot, cold, wet, or windy it might be!

Date:

Astronomy

Mar. 20, 2014 Rise Set
Actual Time 6:56 AM PDT 7:06 PM PDT
Civil Twilight 6:26 AM PDT 7:35 PM PDT
Nautical Twilight 5:52 AM PDT 8:10 PM PDT
Astronomical Twilight 5:16 AM PDT 8:46 PM PDT
Moon 11:44 PM PDT (3/20) 8:54 AM PDT (3/20)
Length of Visible Light 13h 08m
Length of Day
12h 09m
Waning Gibbous, 83% of the Moon is Illuminated
Mar 20
Waning Gibbous
Mar 23
Last Quarter
Mar 30
New
Apr 7
First Quarter
Apr 15
Full

Hourly Weather History & Observations

Time (PDT) Temp. Windchill Dew Point Humidity Pressure Visibility Wind Dir Wind Speed Gust Speed Precip Events Conditions
12:26 AM 33.1 °F 28.7 °F 28.0 °F 82% 30.08 in 10.0 mi Variable 4.6 mph - 0.00 in   Overcast
12:35 AM 33.1 °F - 26.1 °F 75% 30.07 in 10.0 mi North - - 0.00 in   Overcast
12:56 AM 33.1 °F 27.7 °F 24.1 °F 70% 30.10 in 10.0 mi Variable 5.8 mph - 0.00 in   Overcast
1:56 AM 32.0 °F 24.8 °F 21.9 °F 66% 30.11 in 10.0 mi West 8.1 mph - N/A   Overcast
2:56 AM 30.9 °F - 19.9 °F 64% 30.13 in 10.0 mi North - - N/A   Overcast
3:56 AM 28.9 °F 23.9 °F 19.9 °F 69% 30.14 in 10.0 mi Variable 4.6 mph - N/A   Clear
4:56 AM 28.9 °F 25.2 °F 21.0 °F 72% 30.16 in 10.0 mi Variable 3.5 mph - N/A   Mostly Cloudy
5:39 AM 28.0 °F 22.8 °F 19.9 °F 72% 30.12 in 10.0 mi Variable 4.6 mph - N/A   Scattered Clouds
5:56 AM 27.0 °F - 19.9 °F 75% 30.18 in - Calm Calm - N/A   Partly Cloudy
6:56 AM 27.0 °F - 19.0 °F 72% 30.20 in 10.0 mi Calm Calm - N/A   Partly Cloudy
7:56 AM 27.0 °F - 19.0 °F 72% 30.21 in 10.0 mi Calm Calm - N/A   Clear
8:56 AM 28.0 °F 24.2 °F 19.9 °F 72% 30.23 in 10.0 mi WSW 3.5 mph - N/A   Mostly Cloudy
9:56 AM 30.0 °F - 19.9 °F 66% 30.25 in 10.0 mi Calm Calm - N/A   Overcast
10:38 AM 32.0 °F 28.7 °F 21.0 °F 64% 30.18 in 10.0 mi Variable 3.5 mph - N/A   Mostly Cloudy
10:56 AM 30.9 °F 26.2 °F 19.9 °F 64% 30.26 in 10.0 mi Variable 4.6 mph - N/A   Overcast
11:56 AM 33.1 °F 30.0 °F 21.0 °F 61% 30.26 in 9.0 mi Variable 3.5 mph - 0.00 in Snow Light Snow
12:56 PM 37.0 °F 32.4 °F 18.0 °F 46% 30.25 in - Variable 5.8 mph - 0.00 in   Mostly Cloudy
1:56 PM 36.0 °F 33.3 °F 19.0 °F 50% 30.24 in 10.0 mi Variable 3.5 mph - 0.00 in   Mostly Cloudy
2:56 PM 39.0 °F 32.8 °F 16.0 °F 39% 30.23 in - West 9.2 mph - N/A   Mostly Cloudy
3:56 PM 37.9 °F 33.5 °F 15.1 °F 39% 30.24 in 10.0 mi Variable 5.8 mph - N/A   Overcast
4:56 PM 37.0 °F - 14.0 °F 39% 30.24 in 10.0 mi Calm Calm - N/A   Overcast
5:56 PM 37.0 °F - 15.1 °F 41% 30.24 in 10.0 mi Calm Calm - N/A   Scattered Clouds
6:56 PM 35.1 °F 32.2 °F 14.0 °F 42% 30.24 in 10.0 mi Variable 3.5 mph - N/A   Partly Cloudy
7:56 PM 30.0 °F - 16.0 °F 56% 30.26 in 10.0 mi Calm Calm - N/A   Clear
8:56 PM 28.0 °F - 17.1 °F 63% 30.27 in 10.0 mi Calm Calm - N/A   Clear
9:56 PM 26.1 °F - 18.0 °F 71% 30.28 in 10.0 mi Calm Calm - N/A   Clear
10:56 PM 25.0 °F - 19.0 °F 78% 30.30 in 10.0 mi Calm Calm - N/A   Clear
11:56 PM 26.1 °F - 19.9 °F 78% 30.29 in 10.0 mi Calm Calm - N/A   Overcast